sat.trackr.live / text

‹ back to catalog

KUIPER-00629

NORAD 69783 · 2026-151W

PAYLOAD ACTIVE UNKNOWN

§ Identity

Operator
Country
US
Launch date
2026-07-02
Launch site
AFETR
Launch vehicle
Mass (kg)
RCS (m²)

External: N2YO · Heavens-Above · Gunter

§ Orbital elements

Epoch: 2026-09-19T15:20:12.909120Z

Period
97.30 min
Inclination
51.9008°
Eccentricity
0.0000425
Mean motion
14.79928069 rev/d
Perigee alt
629.3 km
Apogee alt
629.8 km
Semi-major
7,007.7 km
B*
1.3023e-4
RAAN
240.4401°
Arg perigee
97.5071°
Mean anomaly
262.5939°
Rev number
1,194

§ Raw data

KUIPER-006291 69783U 26151W   26262.63903830  .00000772  00000+0  13023-3 0  99952 69783  51.9008 240.4401 0000425  97.5071 262.5939 14.79928069 11949

JSON: /api/v1/satellites/69783 · /tle

For live sub-satellite position, see the globe view (requires WebGL).

§ Visibility from observer

Set your observer location to see the next 7 days of passes ≥ 10°. The values pass through the URL so the page stays shareable.

No JS? Fill the form by hand. The geolocation button needs JavaScript.